Orbital Elements at Epoch 2459200.5 (2020-Dec-17.0) TDB
Reference: JPL 16 (heliocentric ecliptic J2000)
Element | Value | Uncertainty (1-sigma) | Units |
e | .2018121520500433 | 5.1644e-08 | |
a | 2.603557931854601 | 1.2434e-08 | au |
q | 2.078128302640064 | 1.331e-07 | au |
i | 3.812895158111031 | 5.5735e-06 | deg |
node | 68.6075160149111 | 7.0311e-05 | deg |
peri | 359.6421970732928 | 7.1406e-05 | deg |
M | 167.7608824544391 | 1.1287e-05 | deg |
tp | 2458485.448212784871 (2019-Jan-01.94821278) | 4.7493e-05 | TDB |
period | 1534.437823831529 4.20 | 1.0992e-05 3.009e-08 | d yr |
n | .2346136118445459 | 1.6807e-09 | deg/d |
Q | 3.128987561069139 | 1.4943e-08 | au |
|
| | Orbit Determination Parameters
Additional Information
|